Location: Hains Lake
(37.8540°N, 99.8578°W)
Time: 14:21:17
(UTC+00:00)

Okean 1 - Pass Details

Date: 11 December 2019
Orbit: 540 x 554 km, 82.5° (Epoch: 25 January)

Event Time Altitude Azimuth Distance (km) Brightness Sun altitude
Exits shadow 12:44:59 11° 327° (NNW) 1,741 5.4 -11.6°
Maximum altitude 12:48:12 28° 270° (W) 1,033 4.2 -11.0°
Drops below altitude 10° 12:51:37 10° 210° (SSW) 1,801 5.9 -10.3°
Sets 12:53:58 0° 198° (SSW) 2,690 6.9 -9.9°
